When you browse on this site, cookies collect data to enhance your experience and personalize the content and advertising you see.
Visit our Privacy Policy to learn more. By continuing to use the site, you agree to this use of cookies and data.
  • In Hungary
  • List of Countries
  • For 7 days
  • Water Temperature
  • Weather Map
  • News
  • Weather Widgets
  • user-avatar
    Login

    Hourly Weather Stafford

    Today, 1 June, Monday

    Time Temperature Precipitation Wind Pressure Humidity
    00:00 +10°C° 0 mm 3 mps 761 mmHg 82%
    01:00 +9°C° 0 mm 3 mps 761 mmHg 84%
    02:00 +8°C° 0 mm 3 mps 760 mmHg 85%
    03:00 +8°C° 0 mm 3 mps 760 mmHg 87%
    04:00 +9°C° 0 mm 3 mps 760 mmHg 85%
    05:00 +10°C° 0 mm 3 mps 761 mmHg 84%
    06:00 +11°C° 0 mm 3 mps 761 mmHg 82%
    07:00 +13°C° 0 mm 4 mps 761 mmHg 78%
    08:00 +14°C° 0 mm 4 mps 761 mmHg 73%
    09:00 +17°C° 0 mm 4 mps 761 mmHg 69%
    10:00 +18°C° 0 mm 4 mps 761 mmHg 66%
    11:00 +19°C° 0 mm 4 mps 760 mmHg 63%
    12:00 +20°C° 0 mm 4 mps 760 mmHg 61%
    13:00 +21°C° 0 mm 4 mps 760 mmHg 61%
    14:00 +21°C° 0 mm 4 mps 760 mmHg 60%
    15:00 +21°C° 0 mm 4 mps 760 mmHg 60%
    16:00 +21°C° 0 mm 3 mps 760 mmHg 64%
    17:00 +20°C° 0 mm 3 mps 760 mmHg 67%
    18:00 +20°C° 0 mm 3 mps 760 mmHg 71%
    19:00 +18°C° 0 mm 3 mps 760 mmHg 77%
    20:00 +16°C° 0 mm 3 mps 760 mmHg 82%
    21:00 +13°C° 0 mm 4 mps 760 mmHg 88%
    22:00 +12°C° 0 mm 3 mps 760 mmHg 87%
    23:00 +11°C° 0 mm 3 mps 760 mmHg 87%

    Tomorrow, 2 June, Tuesday

    Time Temperature Precipitation Wind Pressure Humidity
    00:00 +9°C° 0 mm 3 mps 760 mmHg 86%
    01:00 +9°C° 0 mm 2 mps 760 mmHg 87%
    02:00 +8°C° 0 mm 2 mps 760 mmHg 89%
    03:00 +9°C° 0 mm 1 mps 760 mmHg 90%
    04:00 +10°C° 0 mm 1 mps 760 mmHg 88%
    05:00 +11°C° 0 mm 1 mps 759 mmHg 85%
    06:00 +12°C° 0 mm 1 mps 759 mmHg 83%
    07:00 +13°C° 0 mm 1 mps 759 mmHg 77%
    08:00 +15°C° 0 mm 1 mps 759 mmHg 70%
    09:00 +17°C° 0 mm 2 mps 759 mmHg 64%
    10:00 +18°C° 0 mm 2 mps 758 mmHg 60%
    11:00 +19°C° 0 mm 2 mps 758 mmHg 56%
    12:00 +20°C° 0 mm 2 mps 758 mmHg 51%
    13:00 +21°C° 0 mm 1 mps 757 mmHg 50%
    14:00 +22°C° 0 mm 1 mps 756 mmHg 49%
    15:00 +22°C° 0 mm 1 mps 756 mmHg 48%
    16:00 +21°C° 0 mm 2 mps 755 mmHg 52%
    17:00 +21°C° 0 mm 2 mps 755 mmHg 57%
    18:00 +20°C° 0 mm 2 mps 754 mmHg 61%
    19:00 +18°C° 0 mm 2 mps 754 mmHg 65%
    20:00 +16°C° 0 mm 2 mps 754 mmHg 69%
    21:00 +14°C° 0 mm 2 mps 754 mmHg 73%
    22:00 +13°C° 0 mm 2 mps 753 mmHg 74%
    23:00 +13°C° 0 mm 2 mps 753 mmHg 76%

    Day after tomorrow, 3 June, Wednesday

    Time Temperature Precipitation Wind Pressure Humidity
    00:00 +12°C° 0 mm 2 mps 752 mmHg 77%
    01:00 +13°C° 0 mm 2 mps 752 mmHg 77%
    02:00 +13°C° 0 mm 2 mps 751 mmHg 78%
    03:00 +13°C° 0 mm 2 mps 751 mmHg 78%
    04:00 +13°C° 0 mm 2 mps 751 mmHg 80%
    05:00 +12°C° 0 mm 3 mps 750 mmHg 82%
    06:00 +13°C° 0 mm 3 mps 750 mmHg 84%
    07:00 +13°C° 0 mm 3 mps 750 mmHg 82%
    08:00 +13°C° 0 mm 4 mps 750 mmHg 81%
    09:00 +14°C° 0 mm 4 mps 750 mmHg 80%
    10:00 +14°C° 0.1 mm 4 mps 750 mmHg 79%
    11:00 +14°C° 0.1 mm 5 mps 750 mmHg 78%
    12:00 +14°C° 0.1 mm 5 mps 750 mmHg 77%
    13:00 +14°C° 0 mm 5 mps 750 mmHg 75%
    14:00 +14°C° 0 mm 5 mps 750 mmHg 74%
    15:00 +14°C° 0 mm 5 mps 750 mmHg 72%
    16:00 +14°C° 0 mm 5 mps 750 mmHg 72%
    17:00 +14°C° 0 mm 4 mps 750 mmHg 72%
    18:00 +14°C° 0 mm 4 mps 750 mmHg 73%
    19:00 +13°C° 0 mm 4 mps 750 mmHg 76%
    20:00 +12°C° 0 mm 4 mps 750 mmHg 78%
    21:00 +11°C° 0 mm 4 mps 750 mmHg 81%
    22:00 +11°C° 0 mm 4 mps 750 mmHg 83%
    23:00 +10°C° 0 mm 3 mps 750 mmHg 86%

    4 June, Thursday

    Time Temperature Precipitation Wind Pressure Humidity
    00:00 +9°C° 0 mm 3 mps 749 mmHg 88%
    01:00 +9°C° 0 mm 3 mps 749 mmHg 87%
    02:00 +9°C° 0 mm 3 mps 749 mmHg 87%
    03:00 +8°C° 0 mm 2 mps 748 mmHg 86%
    04:00 +9°C° 0 mm 2 mps 748 mmHg 84%
    05:00 +9°C° 0 mm 2 mps 748 mmHg 82%
    06:00 +9°C° 0 mm 2 mps 747 mmHg 81%
    07:00 +10°C° 0 mm 2 mps 747 mmHg 77%
    08:00 +11°C° 0 mm 3 mps 747 mmHg 73%
    09:00 +12°C° 0 mm 3 mps 747 mmHg 70%
    10:00 +12°C° 0.2 mm 3 mps 747 mmHg 69%
    11:00 +13°C° 0.2 mm 4 mps 746 mmHg 68%
    12:00 +13°C° 0.2 mm 4 mps 746 mmHg 68%
    13:00 +13°C° 0.2 mm 4 mps 746 mmHg 68%
    14:00 +13°C° 0.2 mm 4 mps 745 mmHg 68%
    15:00 +13°C° 0.2 mm 3 mps 745 mmHg 68%
    16:00 +13°C° 0.2 mm 4 mps 745 mmHg 69%
    17:00 +13°C° 0.2 mm 4 mps 745 mmHg 70%
    18:00 +13°C° 0.2 mm 4 mps 745 mmHg 70%
    19:00 +12°C° 0 mm 4 mps 745 mmHg 75%
    20:00 +10°C° 0 mm 3 mps 745 mmHg 80%
    21:00 +9°C° 0 mm 3 mps 745 mmHg 85%
    22:00 +9°C° 0 mm 3 mps 744 mmHg 87%
    23:00 +8°C° 0 mm 3 mps 744 mmHg 89%

    5 June, Friday

    Time Temperature Precipitation Wind Pressure Humidity
    00:00 +7°C° 0 mm 3 mps 744 mmHg 91%
    01:00 +7°C° 0 mm 3 mps 744 mmHg 92%
    02:00 +7°C° 0 mm 3 mps 743 mmHg 92%
    03:00 +7°C° 0 mm 3 mps 743 mmHg 93%
    04:00 +7°C° 0 mm 4 mps 743 mmHg 91%
    05:00 +8°C° 0 mm 4 mps 742 mmHg 89%
    06:00 +8°C° 0 mm 4 mps 742 mmHg 87%
    07:00 +8°C° 0.1 mm 4 mps 741 mmHg 86%
    08:00 +10°C° 0.1 mm 4 mps 741 mmHg 85%
    09:00 +10°C° 0.1 mm 4 mps 740 mmHg 84%
    10:00 +9°C° 0.1 mm 5 mps 740 mmHg 85%
    11:00 +10°C° 0.1 mm 5 mps 739 mmHg 86%
    12:00 +10°C° 0.1 mm 6 mps 738 mmHg 87%
    13:00 +11°C° 0.3 mm 7 mps 738 mmHg 83%
    14:00 +12°C° 0.3 mm 8 mps 737 mmHg 78%
    15:00 +12°C° 0.3 mm 9 mps 736 mmHg 74%
    16:00 +12°C° 0.2 mm 9 mps 736 mmHg 74%
    17:00 +11°C° 0.2 mm 9 mps 736 mmHg 74%
    18:00 +10°C° 0.2 mm 9 mps 736 mmHg 74%
    19:00 +10°C° 0 mm 9 mps 737 mmHg 74%
    20:00 +8°C° 0 mm 9 mps 738 mmHg 75%
    21:00 +8°C° 0 mm 10 mps 738 mmHg 76%
    22:00 +7°C° 0 mm 8 mps 739 mmHg 77%
    23:00 +6°C° 0 mm 7 mps 740 mmHg 79%

    6 June, Saturday

    Time Temperature Precipitation Wind Pressure Humidity
    00:00 +6°C° 0 mm 5 mps 741 mmHg 80%
    01:00 +6°C° 0 mm 5 mps 741 mmHg 81%
    02:00 +6°C° 0 mm 5 mps 741 mmHg 82%
    03:00 +4°C° 0 mm 6 mps 742 mmHg 83%
    04:00 +5°C° 0 mm 6 mps 742 mmHg 81%
    05:00 +5°C° 0 mm 7 mps 742 mmHg 79%
    06:00 +6°C° 0 mm 8 mps 743 mmHg 77%
    07:00 +6°C° 0.1 mm 9 mps 743 mmHg 73%
    08:00 +7°C° 0.1 mm 10 mps 743 mmHg 68%
    09:00 +8°C° 0.1 mm 11 mps 744 mmHg 64%
    10:00 +8°C° 0.1 mm 11 mps 744 mmHg 63%
    11:00 +8°C° 0.1 mm 11 mps 744 mmHg 62%
    12:00 +8°C° 0.1 mm 11 mps 745 mmHg 61%
    13:00 +8°C° 0.1 mm 11 mps 745 mmHg 62%
    14:00 +8°C° 0.1 mm 11 mps 745 mmHg 63%
    15:00 +8°C° 0.1 mm 11 mps 745 mmHg 64%
    16:00 +8°C° 0.1 mm 10 mps 745 mmHg 65%
    17:00 +7°C° 0.1 mm 10 mps 746 mmHg 66%
    18:00 +7°C° 0.1 mm 9 mps 746 mmHg 67%
    19:00 +7°C° 0 mm 9 mps 746 mmHg 68%
    20:00 +6°C° 0 mm 8 mps 747 mmHg 70%
    21:00 +5°C° 0 mm 7 mps 747 mmHg 71%
    22:00 +5°C° 0 mm 7 mps 747 mmHg 72%
    23:00 +5°C° 0 mm 7 mps 747 mmHg 72%
    Show more